User: anonymous   Login
Location: State Camp
(41.2367°N, 77.7828°W)
Time: 04:43:23
(UTC-04:00)
Language:

ADEOS Rocket - Orbit

View from above orbital plane
View from above orbital plane
View from above satellite
View from above satellite

Ground track
Ground track

The orbit data is extracted from the following two-line orbital elements,

1 24279U 96046C   14297.16365632  .00000048  00000-0  10769-3 0  7473
2 24279 098.7316 348.6612 0299670 235.9791 183.8899 13.46996930894051
Epoch (UTC): 24 October 2014 03:55:39
Eccentricity: 0.0299670
inclination: 98.7316°
perigee height: 860 km
apogee height: 1307 km
right ascension of ascending node: 348.6612°
argument of perigee: 235.9791°
revolutions per day: 13.46996930
mean anomaly at epoch: 183.8899°
orbit number at epoch: 89405

The dashed part of the orbit path shows where the satellite is in the earth's shadow,  

DLR